OSSIPEE R NR EFFINGHAM: From 09/05/2020 00:00 to 09/22/2020 00:00

Date STAGE [FT] OBSERVED DAM ELEVATION FLOW [CFS] PRECIPITATION INCREMENT [IN] PRECIPITATION TOTAL [IN] AIR TEMPERATURE [DEGF]
09/19/2020 09:00 0.96 407.24 31.3 -- -- 38.3
09/19/2020 08:00 0.96 407.23 31.3 -- -- 33.9
09/19/2020 07:00 0.96 407.23 31.3 0.00 -- 33.7
09/19/2020 06:00 0.96 407.23 31.3 0.00 -- 34.2
09/19/2020 05:00 0.96 407.24 31.3 0.00 -- 35.9
09/19/2020 04:00 0.96 407.23 31.3 0.00 -- 37.1
09/19/2020 03:00 0.96 407.24 31.3 0.00 -- 38.5
09/19/2020 02:00 0.96 407.24 31.3 0.00 -- 39.8
09/19/2020 01:00 0.96 407.24 31.3 0.00 -- 42.8
09/19/2020 00:00 0.96 407.24 31.3 0.00 -- 45.8
09/18/2020 23:00 0.96 407.24 31.3 0.00 -- 48.1
09/18/2020 22:00 0.96 407.25 31.3 0.00 -- 52.1
09/18/2020 21:00 0.96 407.25 31.3 0.00 -- 54.0
09/18/2020 20:00 0.96 407.25 31.3 0.00 -- 56.8
09/18/2020 19:00 0.96 407.25 31.3 0.00 -- 60.4
09/18/2020 18:00 0.96 407.24 31.3 0.00 -- 63.6
09/18/2020 17:00 0.96 407.24 31.3 0.00 -- 64.5
09/18/2020 16:00 0.96 407.25 31.3 0.00 -- 64.0
09/18/2020 15:00 0.96 407.25 31.3 0.00 -- 61.2
09/18/2020 14:00 0.96 407.25 31.3 0.00 -- 59.7
09/18/2020 13:00 0.96 407.24 31.3 0.00 -- 55.9
09/18/2020 12:00 0.96 407.24 31.3 0.00 -- 52.7
09/18/2020 11:00 0.96 407.24 31.3 0.00 -- 51.5
09/18/2020 10:00 0.96 407.24 31.3 0.01 -- 51.3
09/18/2020 09:00 0.96 407.24 31.3 0.00 -- 50.9
09/18/2020 08:00 0.96 407.24 31.3 0.00 -- 51.4
09/18/2020 07:00 0.96 407.23 31.3 0.00 -- 51.4
09/18/2020 06:00 0.96 407.23 31.3 0.00 -- 51.9
09/18/2020 05:00 0.96 407.24 31.3 0.00 -- 53.9
09/18/2020 04:00 0.96 407.24 31.3 0.01 -- 54.7
09/18/2020 03:00 0.96 407.23 31.3 0.01 -- 54.9
09/18/2020 02:00 0.96 407.23 31.3 0.02 -- 55.6
09/18/2020 01:00 0.96 407.23 31.3 0.03 -- 56.0
09/18/2020 00:00 0.96 407.23 31.3 0.05 0.08 56.2
09/17/2020 23:00 0.96 407.23 31.3 0.06 -- 56.7
09/17/2020 22:00 0.96 407.22 31.3 0.01 -- 57.7
09/17/2020 21:00 0.96 407.22 31.3 0.00 -- 60.2
09/17/2020 20:00 0.96 407.22 31.3 0.00 -- 62.4
09/17/2020 19:00 0.96 407.21 31.3 0.00 -- 63.2
09/17/2020 18:00 0.96 407.21 31.3 0.00 -- 64.8
09/17/2020 17:00 0.96 407.23 31.3 0.00 -- 67.2
09/17/2020 16:00 0.96 407.24 31.3 0.00 -- 70.3
09/17/2020 15:00 0.96 407.24 31.3 0.00 -- 73.1
09/17/2020 14:00 0.96 407.23 31.3 0.00 -- 72.1
09/17/2020 13:00 0.96 407.23 31.3 0.00 -- 71.3
09/17/2020 12:00 0.96 407.23 31.3 0.00 -- 68.0
09/17/2020 11:00 0.96 407.23 31.3 0.00 -- 64.7
09/17/2020 10:00 0.96 407.23 31.3 0.00 -- 62.0
09/17/2020 09:00 0.96 407.22 31.3 0.00 -- 57.3
09/17/2020 08:00 0.96 407.22 31.3 0.00 -- 58.0
09/17/2020 07:00 0.96 407.22 31.3 0.00 -- 58.1
09/17/2020 06:00 0.96 407.22 31.3 0.00 -- 58.1
09/17/2020 05:00 0.96 407.22 31.3 0.00 -- 58.7
09/17/2020 04:00 0.96 407.22 31.3 0.00 -- 59.4
09/17/2020 03:00 0.96 407.23 31.3 0.00 -- 60.3
09/17/2020 02:00 0.96 407.22 31.3 0.00 -- 61.2
09/17/2020 01:00 0.96 407.22 31.3 0.00 -- 62.5
09/17/2020 00:00 0.96 407.22 31.3 0.00 0.12 63.3
09/16/2020 23:00 0.96 407.25 31.3 0.00 -- 63.8
09/16/2020 22:00 0.96 407.26 31.3 0.00 -- 65.8
09/16/2020 21:00 0.96 407.23 31.3 0.00 -- 67.3
09/16/2020 20:00 0.96 407.23 31.3 0.00 -- 69.2
09/16/2020 19:00 0.96 407.24 31.3 0.00 -- 71.0
09/16/2020 18:00 0.96 407.23 31.3 0.00 -- 73.8
09/16/2020 17:00 0.96 407.23 31.3 0.00 -- 74.0
09/16/2020 16:00 0.96 407.23 31.3 0.00 -- 73.0
09/16/2020 15:00 0.96 407.24 31.3 0.00 -- 70.6
09/16/2020 14:00 0.96 407.26 31.3 0.00 -- 67.8
09/16/2020 13:00 0.96 407.25 31.3 0.00 -- 65.4
09/16/2020 12:00 0.96 407.23 31.3 0.00 -- 61.4
09/16/2020 11:00 0.96 407.23 31.3 0.00 -- 58.5
09/16/2020 10:00 0.96 407.24 31.3 0.00 -- 56.3
09/16/2020 09:00 0.96 407.24 31.3 0.00 -- 52.1
09/16/2020 08:00 0.96 407.22 31.3 0.00 -- 39.7
09/16/2020 07:00 0.96 407.22 31.3 0.00 -- 40.1
09/16/2020 06:00 0.96 407.22 31.3 0.00 -- 40.6
09/16/2020 05:00 0.96 407.21 31.3 0.00 -- 41.2
09/16/2020 04:00 0.96 407.22 31.3 0.00 -- 42.1
09/16/2020 03:00 0.96 407.21 31.3 0.00 -- 43.4
09/16/2020 02:00 0.96 407.21 31.3 0.00 -- 44.7
09/16/2020 01:00 0.96 407.22 31.3 0.00 -- 45.7
09/16/2020 00:00 0.96 407.22 31.3 0.00 0.00 46.9
09/15/2020 23:00 0.96 407.23 31.3 0.00 -- 47.7
09/15/2020 22:00 0.96 407.22 31.3 0.00 -- 48.2
09/15/2020 21:00 0.96 407.22 31.3 0.00 -- 51.6
09/15/2020 20:00 0.96 407.21 31.3 0.00 -- 56.5
09/15/2020 19:00 0.96 407.23 31.3 0.00 -- 61.3
09/15/2020 18:00 0.96 407.23 31.3 0.00 -- 62.4
09/15/2020 17:00 0.96 407.22 31.3 0.00 -- 62.5
09/15/2020 16:00 0.96 407.22 31.3 0.00 -- 61.8
09/15/2020 15:00 0.96 407.22 31.3 0.00 -- 61.6
09/15/2020 14:00 0.96 407.23 31.3 0.00 -- 60.4
09/15/2020 13:00 0.96 407.21 31.3 0.00 -- 59.5
09/15/2020 12:00 0.96 407.22 31.3 0.00 -- 58.0
09/15/2020 11:00 0.96 407.22 31.3 0.00 -- 55.6
09/15/2020 10:00 0.96 407.21 31.3 0.00 -- 49.0
09/15/2020 09:00 0.96 407.21 31.3 0.00 -- 39.1
09/15/2020 08:00 0.96 407.21 31.3 0.00 -- 36.7
09/15/2020 07:00 0.96 407.20 31.3 0.00 -- 37.5
09/15/2020 06:00 0.96 407.20 31.3 0.00 -- 38.5
09/15/2020 05:00 0.96 407.21 31.3 0.00 -- 40.6
09/15/2020 04:00 0.96 407.21 31.3 0.00 -- 39.9
09/15/2020 03:00 0.96 407.19 31.3 0.00 -- 40.6
09/15/2020 02:00 0.96 407.21 31.3 0.00 -- 41.7
09/15/2020 01:00 0.96 407.21 31.3 0.00 -- 43.4
09/15/2020 00:00 0.96 407.21 31.3 0.00 0.00 45.5
09/14/2020 23:00 0.96 407.21 31.3 0.00 -- 48.9
09/14/2020 22:00 0.96 407.21 31.3 0.00 -- 52.0
09/14/2020 21:00 0.96 407.23 31.3 0.00 -- 55.1
09/14/2020 20:00 0.97 407.24 32.0 0.00 -- 57.5
09/14/2020 19:00 1.00 407.28 34.0 0.00 -- 60.9
09/14/2020 18:00 1.25 407.24 55.4 0.00 -- 64.5
09/14/2020 17:00 1.37 407.22 67.5 0.00 -- 67.5
09/14/2020 16:00 1.37 407.26 67.5 0.00 -- 70.4
09/14/2020 15:00 1.37 407.26 67.5 0.00 -- 71.5
09/14/2020 14:00 1.37 407.26 67.5 0.00 -- 71.3
09/14/2020 13:00 1.37 407.26 67.5 0.00 -- 71.0
09/14/2020 12:00 1.37 407.25 67.5 0.00 -- 67.7
09/14/2020 11:00 1.37 407.24 67.5 0.00 -- 69.0
09/14/2020 10:00 1.37 407.24 67.5 0.00 -- 68.2
09/14/2020 09:00 1.37 407.24 67.5 0.00 -- 63.5
09/14/2020 08:00 1.37 407.25 67.5 0.00 -- 65.0
09/14/2020 07:00 1.37 407.24 67.5 0.00 -- 62.7
09/14/2020 06:00 1.37 407.24 67.5 0.00 -- 63.1
09/14/2020 05:00 1.37 407.23 67.5 0.00 -- 65.1
09/14/2020 04:00 1.37 407.23 67.5 0.00 -- 66.2
09/14/2020 03:00 1.37 407.23 67.5 0.00 -- 67.0
09/14/2020 02:00 1.37 407.24 67.5 0.00 -- 66.0
09/14/2020 01:00 1.37 407.25 67.5 0.00 -- 67.7
09/14/2020 00:00 1.37 407.24 67.5 0.00 0.00 68.6
09/13/2020 23:00 1.37 407.24 67.5 0.00 -- 66.8
09/13/2020 22:00 1.37 407.24 67.5 0.00 -- 65.9
09/13/2020 21:00 1.37 407.24 67.5 0.00 -- 66.7
09/13/2020 20:00 1.37 407.23 67.5 0.00 -- 68.7
09/13/2020 19:00 1.37 407.24 67.5 0.00 -- 70.4
09/13/2020 18:00 1.37 407.24 67.5 0.00 -- 70.8
09/13/2020 17:00 1.37 407.23 67.5 0.00 -- 70.6
09/13/2020 16:00 1.37 407.23 67.5 0.00 -- 71.3
09/13/2020 15:00 1.37 407.24 67.5 0.00 -- 69.5
09/13/2020 14:00 1.37 407.24 67.5 0.00 -- 68.4
09/13/2020 13:00 1.37 407.24 67.5 0.00 -- 66.1
09/13/2020 12:00 1.37 407.23 67.5 0.00 -- 62.9
09/13/2020 11:00 1.37 407.24 67.5 0.00 -- 59.3
09/13/2020 10:00 1.37 407.23 67.5 0.00 -- 55.4
09/13/2020 09:00 1.37 407.23 67.5 0.00 -- 48.5
09/13/2020 08:00 1.37 407.23 67.5 0.00 -- 45.1
09/13/2020 07:00 1.37 407.23 67.5 0.00 -- 44.5
09/13/2020 06:00 1.37 407.24 67.5 0.00 -- 44.2
09/13/2020 05:00 1.37 407.24 67.5 0.00 -- 43.9
09/13/2020 04:00 1.37 407.24 67.5 0.00 -- 44.8
09/13/2020 03:00 1.37 407.23 67.5 0.00 -- 45.9
09/13/2020 02:00 1.37 407.23 67.5 0.00 -- 47.3
09/13/2020 01:00 1.37 407.24 67.5 0.00 -- 48.9
09/13/2020 00:00 1.37 407.24 67.5 0.00 0.00 50.4
09/12/2020 23:00 1.37 407.24 67.5 0.00 -- 52.7
09/12/2020 22:00 1.37 407.24 67.5 0.00 -- 56.2
09/12/2020 21:00 1.37 407.24 67.5 0.00 -- 58.9
09/12/2020 20:00 1.37 407.24 67.5 0.00 -- 62.2
09/12/2020 19:00 1.37 407.24 67.5 0.00 -- 66.2
09/12/2020 18:00 1.37 407.24 67.5 0.00 -- 68.8
09/12/2020 17:00 1.37 407.24 67.5 0.00 -- 69.1
09/12/2020 16:00 1.37 407.25 67.5 0.00 -- 68.2
09/12/2020 15:00 1.37 407.24 67.5 0.00 -- 67.3
09/12/2020 14:00 1.37 407.25 67.5 0.00 -- 66.9
09/12/2020 13:00 1.37 407.24 67.5 0.00 -- 65.0
09/12/2020 12:00 1.37 407.25 67.5 0.00 -- 63.2
09/12/2020 11:00 1.37 407.25 67.5 0.00 -- 60.4
09/12/2020 10:00 1.37 407.25 67.5 0.00 -- 54.4
09/12/2020 09:00 1.37 407.25 67.5 0.00 -- 46.1
09/12/2020 08:00 1.37 407.25 67.5 0.00 -- 42.3
09/12/2020 07:00 1.37 407.24 67.5 0.00 -- 41.7
09/12/2020 06:00 1.37 407.25 67.5 0.00 -- 42.9
09/12/2020 05:00 1.37 407.25 67.5 0.00 -- 44.7
09/12/2020 04:00 1.37 407.25 67.5 0.00 -- 45.6
09/12/2020 03:00 1.37 407.25 67.5 0.00 -- 46.6
09/12/2020 02:00 1.37 407.25 67.5 0.00 -- 47.9
09/12/2020 01:00 1.37 407.25 67.5 0.00 -- 50.1
09/12/2020 00:00 1.37 407.25 67.5 0.00 0.00 51.7
09/11/2020 23:00 1.37 407.26 67.5 0.00 -- 53.0
09/11/2020 22:00 1.37 407.25 67.5 0.00 -- 54.1
09/11/2020 21:00 1.37 407.25 67.5 0.00 -- 57.1
09/11/2020 20:00 1.37 407.25 67.5 0.00 -- 61.0
09/11/2020 19:00 1.37 407.23 67.5 0.00 -- 64.7
09/11/2020 18:00 1.37 407.24 67.5 0.00 -- 66.8
09/11/2020 17:00 1.37 407.24 67.5 0.00 -- 68.4
09/11/2020 16:00 1.37 407.24 67.5 0.00 -- 68.7
09/11/2020 15:00 1.37 407.24 67.5 0.00 -- 68.0
09/11/2020 14:00 1.37 407.24 67.5 0.00 -- 67.4
09/11/2020 13:00 1.37 407.26 67.5 0.00 -- 67.4
09/11/2020 12:00 1.37 407.26 67.5 0.00 -- 66.0
09/11/2020 11:00 1.37 407.25 67.5 0.00 -- 62.2
09/11/2020 10:00 1.37 407.25 67.5 0.00 -- 61.1
09/11/2020 09:00 1.37 407.24 67.5 0.00 -- 60.8
09/11/2020 08:00 1.37 407.25 67.5 0.00 -- 61.5
09/11/2020 07:00 1.37 407.26 67.5 0.00 -- 63.4
09/11/2020 06:00 1.37 407.26 67.5 0.00 -- 64.9
09/11/2020 05:00 1.37 407.26 67.5 0.00 -- 65.3
09/11/2020 04:00 1.37 407.27 67.5 0.00 -- 65.7
09/11/2020 03:00 1.37 407.27 67.5 0.00 -- 65.8
09/11/2020 02:00 1.37 407.27 67.5 0.00 -- 67.6
09/11/2020 01:00 1.37 407.27 67.5 0.00 -- 69.2
09/11/2020 00:00 1.37 407.27 67.5 0.00 0.00 71.3
09/10/2020 23:00 1.37 407.27 67.5 0.00 -- 73.0
09/10/2020 22:00 1.37 407.27 67.5 0.00 -- 75.4
09/10/2020 21:00 1.37 407.27 67.5 0.00 -- 76.0
09/10/2020 20:00 1.37 407.26 67.5 0.00 -- 77.0
09/10/2020 19:00 1.37 407.26 67.5 0.00 -- 78.5
09/10/2020 18:00 1.37 407.27 67.5 0.00 -- 79.1
09/10/2020 17:00 1.37 407.28 67.5 0.00 -- 79.9
09/10/2020 16:00 1.37 407.28 67.5 0.00 -- 80.9
09/10/2020 15:00 1.37 407.28 67.5 0.00 -- 81.4
09/10/2020 14:00 1.37 407.26 67.5 0.00 -- 80.7
09/10/2020 13:00 1.37 407.26 67.5 0.00 -- 79.4
09/10/2020 12:00 1.37 407.26 67.5 0.00 -- 75.2
09/10/2020 11:00 1.37 407.27 67.5 0.00 -- 69.9
09/10/2020 10:00 1.37 407.26 67.5 0.00 -- 62.6
09/10/2020 09:00 1.37 407.26 67.5 0.00 -- 59.7
09/10/2020 08:00 1.37 407.26 67.5 0.00 -- 58.1
09/10/2020 07:00 1.37 407.26 67.5 0.00 -- 58.2
09/10/2020 06:00 1.37 407.26 67.5 0.00 -- 58.2
09/10/2020 05:00 1.37 407.26 67.5 0.00 -- 58.8
09/10/2020 04:00 1.37 407.26 67.5 0.00 -- 58.9
09/10/2020 03:00 1.37 407.26 67.5 0.00 -- 59.3
09/10/2020 02:00 1.37 407.26 67.5 0.00 -- 60.8
09/10/2020 01:00 1.37 407.26 67.5 0.00 -- 62.4
09/10/2020 00:00 1.37 407.26 67.5 0.00 0.00 63.9
09/09/2020 23:00 1.37 407.25 67.5 0.00 -- 65.8
09/09/2020 22:00 1.37 407.26 67.5 0.00 -- 67.6
09/09/2020 21:00 1.37 407.26 67.5 0.00 -- 70.7
09/09/2020 20:00 1.37 407.26 67.5 0.00 -- 74.3
09/09/2020 19:00 1.37 407.26 67.5 0.00 -- 79.1
09/09/2020 18:00 1.37 407.26 67.5 0.00 -- 81.7
09/09/2020 17:00 1.37 407.27 67.5 0.00 -- 83.9
09/09/2020 16:00 1.37 407.27 67.5 0.00 -- 84.6
09/09/2020 15:00 1.37 407.27 67.5 0.00 -- 84.3
09/09/2020 14:00 1.37 407.27 67.5 0.00 -- 82.8
09/09/2020 13:00 1.37 407.26 67.5 0.00 -- 81.5
09/09/2020 12:00 1.37 407.26 67.5 0.00 -- 78.6
09/09/2020 11:00 1.37 407.26 67.5 0.00 -- 74.9
09/09/2020 10:00 1.37 407.26 67.5 0.00 -- 68.5
09/09/2020 09:00 1.37 407.26 67.5 0.00 -- 62.6
09/09/2020 08:00 1.37 407.26 67.5 0.00 -- 61.0
09/09/2020 07:00 1.37 407.26 67.5 0.00 -- 60.6
09/09/2020 06:00 1.37 407.26 67.5 0.00 -- 61.5
09/09/2020 05:00 1.37 407.26 67.5 0.00 -- 62.5
09/09/2020 04:00 1.37 407.26 67.5 0.00 -- 63.6
09/09/2020 03:00 1.37 407.26 67.5 0.00 -- 64.4
09/09/2020 02:00 1.37 407.26 67.5 0.00 -- 64.6
09/09/2020 01:00 1.37 407.27 67.5 0.00 -- 65.7
09/09/2020 00:00 1.37 407.26 67.5 0.00 0.00 67.4
09/08/2020 23:00 1.37 407.26 67.5 0.00 -- 68.6
09/08/2020 22:00 1.37 407.26 67.5 0.00 -- 69.8
09/08/2020 21:00 1.37 407.26 67.5 0.00 -- 72.0
09/08/2020 20:00 1.37 407.26 67.5 0.00 -- 76.7
09/08/2020 19:00 1.37 407.26 67.5 0.00 -- 79.8
09/08/2020 18:00 1.37 407.27 67.5 0.00 -- 80.9
09/08/2020 17:00 1.37 407.27 67.5 0.00 -- 82.0
09/08/2020 16:00 1.37 407.26 67.5 0.00 -- 80.7
09/08/2020 15:00 1.37 407.27 67.5 0.00 -- 81.9
09/08/2020 14:00 1.37 407.26 67.5 0.00 -- 81.5
09/08/2020 13:00 1.37 407.26 67.5 0.00 -- 80.0
09/08/2020 12:00 1.37 407.26 67.5 0.00 -- 77.2
09/08/2020 11:00 1.37 407.26 67.5 0.00 -- 72.5
09/08/2020 10:00 1.37 407.26 67.5 0.00 -- 67.1
09/08/2020 09:00 1.37 407.26 67.5 0.00 -- 60.0
09/08/2020 08:00 1.37 407.25 67.5 0.00 -- 57.0
09/08/2020 07:00 1.37 407.26 67.5 0.00 -- 57.2
09/08/2020 06:00 1.37 407.25 67.5 0.00 -- 57.6
09/08/2020 05:00 1.37 407.25 67.5 0.00 -- 59.0
09/08/2020 04:00 1.37 407.26 67.5 0.00 -- 60.2
09/08/2020 03:00 1.37 407.25 67.5 0.00 -- 61.0
09/08/2020 02:00 1.37 407.26 67.5 0.00 -- 61.9
09/08/2020 01:00 1.37 407.26 67.5 0.00 -- 64.2
09/08/2020 00:00 1.37 407.25 67.5 0.00 0.00 66.3
09/07/2020 23:00 1.37 407.25 67.5 0.00 -- 67.0
09/07/2020 22:00 1.37 407.26 67.5 0.00 -- 68.3
09/07/2020 21:00 1.37 407.26 67.5 0.00 -- 70.1
09/07/2020 20:00 1.37 407.25 67.5 0.00 -- 71.2
09/07/2020 19:00 1.37 407.23 67.5 0.00 -- 72.2
09/07/2020 18:00 1.37 407.24 67.5 0.00 -- 74.5
09/07/2020 17:00 1.37 407.26 67.5 0.00 -- 78.0
09/07/2020 16:00 1.37 407.26 67.5 0.00 -- 79.1
09/07/2020 15:00 1.38 407.27 68.6 0.00 -- 78.6
09/07/2020 14:00 1.38 407.27 68.6 0.00 -- 78.3
09/07/2020 13:00 1.38 407.27 68.6 0.00 -- 75.0
09/07/2020 12:00 1.38 407.26 68.6 0.00 -- 74.2
09/07/2020 11:00 1.38 407.26 68.6 0.00 -- 68.0
09/07/2020 10:00 1.38 407.26 68.6 0.00 -- 60.5
09/07/2020 09:00 1.38 407.26 68.6 0.00 -- 56.4
09/07/2020 08:00 1.38 407.26 68.6 0.00 -- 54.2
09/07/2020 07:00 1.38 407.26 68.6 0.00 -- 53.2
09/07/2020 06:00 1.38 407.25 68.6 0.00 -- 52.4
09/07/2020 05:00 1.38 407.26 68.6 0.00 -- 51.1
09/07/2020 04:00 1.38 407.26 68.6 0.00 -- 50.7
09/07/2020 03:00 1.38 407.26 68.6 0.00 -- 50.9
09/07/2020 02:00 1.38 407.26 68.6 0.00 -- 51.7
09/07/2020 01:00 1.38 407.26 68.6 0.00 -- 52.4
09/07/2020 00:00 1.38 407.26 68.6 0.00 0.00 53.9
09/06/2020 23:00 1.38 407.26 68.6 0.00 -- 56.1
09/06/2020 22:00 1.38 407.26 68.6 0.00 -- 58.0
09/06/2020 21:00 1.38 407.25 68.6 0.00 -- 61.0
09/06/2020 20:00 1.38 407.26 68.6 0.00 -- 66.5
09/06/2020 19:00 1.38 407.26 68.6 0.00 -- 72.2
09/06/2020 18:00 1.38 407.26 68.6 0.00 -- 74.3
09/06/2020 17:00 1.38 407.27 68.6 0.00 -- 74.6
09/06/2020 16:00 1.38 407.29 68.6 0.00 -- 74.5
09/06/2020 15:00 1.38 407.28 68.6 0.00 -- 74.2
09/06/2020 14:00 1.38 407.28 68.6 0.00 -- 73.8
09/06/2020 13:00 1.38 407.26 68.6 0.00 -- 73.7
09/06/2020 12:00 1.45 407.26 76.2 0.00 -- 71.1
09/06/2020 11:00 2.36 407.28 244.7 0.00 -- 70.1
09/06/2020 10:00 2.58 407.21 299.5 0.00 -- 63.3
09/06/2020 09:00 2.58 407.22 299.5 0.00 -- 52.9
09/06/2020 08:00 2.58 407.22 299.5 0.00 -- 51.0
09/06/2020 07:00 2.58 407.23 299.5 0.00 -- 50.8
09/06/2020 06:00 2.58 407.23 299.5 0.00 -- 50.4
09/06/2020 05:00 2.58 407.23 299.5 0.00 -- 50.5
09/06/2020 04:00 2.58 407.24 299.5 0.00 -- 50.3
09/06/2020 03:00 2.58 407.24 299.5 0.00 -- 51.5
09/06/2020 02:00 2.58 407.25 299.5 0.00 -- 53.4
09/06/2020 01:00 2.58 407.26 299.5 0.00 -- 55.5
09/06/2020 00:00 2.58 407.26 299.5 0.00 0.00 57.6
09/05/2020 23:00 2.58 407.25 299.5 0.00 -- 58.2
09/05/2020 22:00 2.59 407.26 302.2 0.00 -- 59.0
09/05/2020 21:00 -- -- -- -- -- 62.8
09/05/2020 20:00 -- -- -- -- -- 68.2
09/05/2020 19:00 -- -- -- -- -- 71.0
09/05/2020 18:00 -- -- -- -- -- 73.3
09/05/2020 17:00 -- -- -- -- -- 73.4
09/05/2020 16:00 -- -- -- -- -- 72.9
09/05/2020 15:00 -- -- -- -- -- 71.8
09/05/2020 14:00 -- -- -- -- -- 71.8
09/05/2020 13:00 -- -- -- -- -- 70.3
09/05/2020 12:00 -- -- -- -- -- 69.9
09/05/2020 11:00 -- -- -- -- -- 68.2
09/05/2020 10:00 -- -- -- -- -- 64.3
09/05/2020 09:00 -- -- -- -- -- 53.4
09/05/2020 08:00 -- -- -- -- -- 48.3
09/05/2020 07:00 -- -- -- -- -- 48.9
09/05/2020 06:00 -- -- -- -- -- 49.7
09/05/2020 05:00 -- -- -- -- -- 51.4
09/05/2020 04:00 -- -- -- -- -- 52.7
09/05/2020 03:00 -- -- -- -- -- 55.2
09/05/2020 02:00 -- -- -- -- -- 55.5
09/05/2020 01:00 -- -- -- -- -- 54.8
09/05/2020 00:00 -- -- -- -- 0.00 56.2